This demonstration page uses our WeatherBlox Daily Observations layout. Learn more.

Left ArrowRight Arrow

Hourly Observations for January 13, 2020

Temp ( °F °C ) Dew Point ( °F °C ) Humidity (%) Winds ( mph kmh ) Pressure ( in mb ) Visibility ( mi km ) Precip ( " mm )
12:53 am 00:53 Cloudy 60 15.6 55 12.8 84 84 SE 3 6 30.26 1025 10 16 0.00 0.00
1:22 am 01:22 Cloudy 60 15.6 55 12.8 84 84 Calm 30.26 1025 10 16 0.00 0.00
1:53 am 01:53 Cloudy 59 15 56 13.3 90 90 Calm 30.26 1025 10 16 0.00 0.00
2:39 am 02:39 Cloudy 60 15.6 56 13.3 86 86 Calm 30.28 1025 10 16 0.00 0.00
2:53 am 02:53 Cloudy 58 14.4 56 13.3 93 93 Calm 30.26 1025 10 16 0.00 0.00
3:06 am 03:06 Cloudy with Light Rain 59 15 56 13.3 90 90 Calm 30.27 1025 10 16 0.00 0.00
3:28 am 03:28 Cloudy 59 15 56 13.3 90 90 Calm 30.27 1025 10 16 0.00 0.00
3:53 am 03:53 Cloudy 59 15 57 13.9 93 93 ESE 3 6 30.27 1025 10 16 0.00 0.00
4:53 am 04:53 Cloudy with Light Rain 59 15 56 13.3 90 90 N 6 9 30.27 1025 7 11 0.01 0.25
5:51 am 05:51 Cloudy with Light Rain 59 15 57 14 94 94 ENE 7 11 30.30 1026 3 4 0.02 0.51
5:53 am 05:53 Cloudy with Rain 59 15 57 13.9 93 93 ENE 7 11 30.29 1026 3 4 0.03 0.76
6:02 am 06:02 Cloudy with Light Rain 59 15 58 14.4 96 96 NNE 3 6 30.30 1026 4 6 0.00 0.00
6:24 am 06:24 Cloudy with Light Rain 59 15 58 14.4 96 96 NW 5 7 30.32 1027 6 10 0.00 0.00
6:45 am 06:45 Cloudy with Light Rain 59 15 58 14.4 96 96 N 3 6 30.32 1027 6 10 0.02 0.51
6:53 am 06:53 Cloudy with Light Rain 59 15 58 14.4 96 96 ENE 3 6 30.31 1027 8 13 0.02 0.51
7:53 am 07:53 Cloudy with Rain 59 15 58 14.4 96 96 NNW 3 6 30.33 1027 2 3 0.10 2.54
7:57 am 07:57 Cloudy with Light Rain 59 15 57 13.9 93 93 NNW 7 11 30.34 1028 3 5 0.01 0.25
8:19 am 08:19 Cloudy with Light Rain 59 15 57 13.9 93 93 Calm 30.34 1028 3 5 0.01 0.25
8:37 am 08:37 Cloudy with Light Rain 59 15 57 13.9 93 93 WSW 5 7 30.36 1028 5 8 0.02 0.51
8:53 am 08:53 Cloudy with Heavy Rain 58 14.4 57 13.9 97 97 W 6 9 30.40 1029 5 8 0.09 2.29
8:57 am 08:57 Cloudy with Heavy Rain 58 14.4 57 13.9 97 97 WSW 5 7 30.40 1029 2 3 0.05 1.27
9:16 am 09:16 Cloudy with Heavy Rain 57 13.9 57 13.9 100 100 Calm 30.40 1029 2 2 0.18 4.57
9:19 am 09:19 Cloudy with Rain 58 14.4 57 13.9 97 97 Calm 30.40 1029 5 8 0.19 4.83
9:53 am 09:53 Mostly Cloudy with Mist and Fog 58 14.4 57 13.9 97 97 ENE 3 6 30.37 1028 5 8 0.21 5.33
10:01 am 10:01 Mostly Cloudy 58 14.4 57 13.9 97 97 E 5 7 30.38 1029 10 16 0.00 0.00
10:53 am 10:53 Mostly Cloudy 59 15 57 13.9 93 93 Calm 30.38 1029 10 16 0.00 0.00
11:53 am 11:53 Mostly Cloudy 62 16.7 58 14.4 86 86 ENE 6 9 30.33 1027 10 16 0.00 0.00
12:33 pm 12:33 Mostly Cloudy 63 17.2 58 14.4 84 84 ESE 3 6 30.33 1027 10 16 0.00 0.00
12:53 pm 12:53 Mostly Cloudy 64 17.8 58 14.4 81 81 VRB 3 6 30.32 1027 10 16 0.00 0.00
1:01 pm 13:01 Mostly Cloudy with Light Rain 64 17.8 58 14.4 81 81 Calm 30.32 1027 10 16 0.00 0.00
1:53 pm 13:53 Cloudy 64 17.8 60 15.6 87 87 E 3 6 30.29 1026 10 16 0.01 0.25
2:27 pm 14:27 Cloudy 65 18.3 60 15.6 84 84 Calm 30.28 1026 10 16 0.00 0.00
2:53 pm 14:53 Cloudy 66 18.9 61 16.1 84 84 Calm 30.28 1026 10 16 0.00 0.00
3:53 pm 15:53 Cloudy 65 18.3 60 15.6 84 84 Calm 30.28 1025 10 16 0.00 0.00
4:53 pm 16:53 Cloudy 65 18.3 61 16.1 87 87 E 3 6 30.29 1026 10 16 0.00 0.00
5:53 pm 17:53 Cloudy 65 18.3 61 16.1 87 87 Calm 30.29 1026 10 16 0.00 0.00
6:35 pm 18:35 Cloudy with Light Rain 65 18.3 62 16.7 90 90 VRB 3 6 30.29 1026 9 14 0.01 0.25
6:53 pm 18:53 Cloudy 65 18.3 62 16.7 90 90 E 3 6 30.30 1026 10 16 0.01 0.25
7:53 pm 19:53 Cloudy 64 17.8 62 16.7 93 93 Calm 30.30 1026 10 16 0.00 0.00
8:50 pm 20:50 Cloudy with Light Rain 63 17 63 17 100 100 NNW 3 6 30.32 1027 7 11 0.01 0.25
8:53 pm 20:53 Cloudy with Light Rain 64 17.8 62 16.7 93 93 Calm 30.32 1027 6 10 0.01 0.25
9:51 pm 21:51 Cloudy with Rain 63 17 63 17 100 100 ENE 3 6 30.33 1027 6 10 0.06 1.52
9:53 pm 21:53 Cloudy with Rain 63 17.2 62 16.7 97 97 ENE 3 6 30.33 1027 6 10 0.06 1.52
10:53 pm 22:53 Cloudy with Rain 63 17.2 62 16.7 97 97 Calm 30.33 1027 3 5 0.11 2.79
11:00 pm 23:00 Cloudy with Strong Thunderstorms 63 17.2 62 16.7 97 97 ENE 6 9 30.33 1027 3 5 0.04 1.02
11:15 pm 23:15 Cloudy with Rain 63 17.2 62 16.7 97 97 Calm 30.32 1027 4 6 0.08 2.03
11:33 pm 23:33 Cloudy with Rain 63 17.2 62 16.7 97 97 N 3 6 30.33 1027 4 6 0.13 3.30
11:42 pm 23:42 Cloudy with Rain 62 16.7 61 16.1 96 96 Calm 30.33 1027 3 5 0.16 4.06
11:47 pm 23:47 Cloudy with Rain 63 17 63 17 100 100 W 5 7 30.33 1027 4 6 0.17 4.32
11:53 pm 23:53 Cloudy with Light Rain 63 17.2 62 16.7 97 97 W 5 7 30.33 1027 5 8 0.18 4.57
11:58 pm 23:58 Cloudy with Light Rain 63 17.2 62 16.7 97 97 W 5 7 30.33 1027 5 8 0.00 0.00

Powered by AerisWeather